| time (UTC) | temp F | wind direction | speed MPH | gust MPH | rain 1hr in | rain 24hr in | rain mn in | humidity % | barometer mb |
| 20260905154550 | 64 | 211 | 1.0 | 7.0 | 0.00 | 0.00 | 0.00 | 11 | 1013.9 |
| 20260905153037 | 63 | 205 | 2.0 | 4.0 | 0.00 | 0.00 | 0.00 | 11 | 1013.7 |
| 20260905151526 | 62 | 188 | 0.0 | 2.0 | 0.00 | 0.00 | 0.00 | 13 | 1013.6 |
| 20260905150006 | 62 | 181 | 0.0 | 3.0 | 0.00 | 0.00 | 0.00 | 10 | 1013.3 |
| 20260905144506 | 60 | 207 | 1.0 | 4.0 | 0.00 | 0.00 | 0.00 | 11 | 1013.1 |
| 20260905143042 | 59 | 158 | 0.0 | 2.0 | 0.00 | 0.00 | 0.00 | 13 | 1012.9 |
| 20260905141554 | 59 | 147 | 0.0 | 0.0 | 0.00 | 0.00 | 0.00 | 13 | 1012.6 |
| 20260905140021 | 59 | 159 | 0.0 | 3.0 | 0.00 | 0.00 | 0.00 | 13 | 1012.4 |
| 20260905134517 | 59 | 207 | 2.0 | 5.0 | 0.00 | 0.00 | 0.00 | 12 | 1012.1 |
| 20260905133126 | 59 | 205 | 0.0 | 2.0 | 0.00 | 0.00 | 0.00 | 17 | 1012.0 |
| 20260905131612 | 58 | 231 | 0.0 | 2.0 | 0.00 | 0.00 | 0.00 | 20 | 1011.6 |
| 20260905130034 | 58 | 221 | 0.0 | 4.0 | 0.00 | 0.00 | 0.00 | 22 | 1011.6 |
| 20260905124531 | 57 | 194 | 1.0 | 3.0 | 0.00 | 0.00 | 0.00 | 25 | 1011.5 |
| 20260905123014 | 57 | 190 | 1.0 | 3.0 | 0.00 | 0.00 | 0.00 | 27 | 1011.3 |
| 20260905121512 | 56 | 176 | 1.0 | 3.0 | 0.00 | 0.00 | 0.00 | 28 | 1011.2 |
| 20260905120052 | 56 | 158 | 0.0 | 2.0 | 0.00 | 0.00 | 0.00 | 35 | 1011.1 |
| 20260905114553 | 56 | 214 | 0.0 | 0.0 | 0.00 | 0.00 | 0.00 | 37 | 1011.2 |
| 20260905113033 | 56 | 158 | 0.0 | 1.0 | 0.00 | 0.00 | 0.00 | 36 | 1011.2 |
| 20260905111531 | 56 | 194 | 0.0 | 1.0 | 0.00 | 0.00 | 0.00 | 38 | 1011.3 |
| 20260905110012 | 56 | 198 | 0.0 | 3.0 | 0.00 | 0.00 | 0.00 | 38 | 1011.4 |
| 20260905104512 | 56 | 195 | 0.0 | 4.0 | 0.00 | 0.00 | 0.00 | 38 | 1011.3 |
| 20260905103054 | 56 | 205 | 0.0 | 0.0 | 0.00 | 0.00 | 0.00 | 38 | 1011.4 |
| 20260905101552 | 56 | 205 | 0.0 | 1.0 | 0.00 | 0.00 | 0.00 | 36 | 1011.4 |
| 20260905100033 | 56 | 188 | 0.0 | 1.0 | 0.00 | 0.00 | 0.00 | 37 | 1011.4 |
| 20260905094533 | 56 | 154 | 0.0 | 0.0 | 0.00 | 0.00 | 0.00 | 37 | 1011.4 |
| 20260905093014 | 56 | 141 | 0.0 | 0.0 | 0.00 | 0.00 | 0.00 | 38 | 1011.4 |
| 20260905091513 | 56 | 169 | 0.0 | 1.0 | 0.00 | 0.00 | 0.00 | 38 | 1011.3 |
| 20260905090006 | 57 | 191 | 0.0 | 2.0 | 0.00 | 0.00 | 0.00 | 38 | 1011.5 |
| 20260905084503 | 57 | 211 | 0.0 | 2.0 | 0.00 | 0.00 | 0.00 | 38 | 1011.7 |
| 20260905083002 | 56 | 139 | 0.0 | 1.0 | 0.00 | 0.00 | 0.00 | 38 | 1011.8 |
| 20260905081603 | 57 | 213 | 0.0 | 2.0 | 0.00 | 0.00 | 0.00 | 38 | 1012.0 |
| 20260905080057 | 57 | 167 | 0.0 | 4.0 | 0.00 | 0.00 | 0.00 | 37 | 1012.0 |
| 20260905074602 | 57 | 188 | 0.0 | 5.0 | 0.00 | 0.00 | 0.00 | 36 | 1012.0 |
| 20260905073027 | 57 | 197 | 0.0 | 4.0 | 0.00 | 0.00 | 0.00 | 36 | 1012.2 |
| 20260905071526 | 57 | 212 | 0.0 | 5.0 | 0.00 | 0.00 | 0.00 | 35 | 1012.0 |
| 20260905070002 | 57 | 179 | 1.0 | 2.0 | 0.00 | 0.00 | 0.00 | 36 | 1012.0 |
| 20260905064557 | 57 | 226 | 0.0 | 3.0 | 0.00 | 0.00 | 0.00 | 35 | 1011.9 |
| 20260905063034 | 58 | 201 | 1.0 | 4.0 | 0.00 | 0.00 | 0.00 | 35 | 1011.8 |
| 20260905061530 | 58 | 173 | 1.0 | 4.0 | 0.00 | 0.00 | 0.00 | 34 | 1011.7 |
| 20260905060008 | 58 | 192 | 1.0 | 4.0 | 0.00 | 0.00 | 0.00 | 35 | 1011.7 |
| 20260905054504 | 58 | 217 | 1.0 | 4.0 | 0.00 | 0.00 | 0.00 | 33 | 1011.7 |
| 20260905053048 | 58 | 180 | 2.0 | 4.0 | 0.00 | 0.00 | 0.00 | 33 | 1011.7 |
| 20260905051545 | 58 | 211 | 0.0 | 3.0 | 0.00 | 0.00 | 0.00 | 35 | 1011.7 |
| 20260905050038 | 58 | 172 | 1.0 | 5.0 | 0.00 | 0.00 | 0.00 | 34 | 1011.7 |
| 20260905044539 | 58 | 201 | 0.0 | 4.0 | 0.00 | 0.00 | 0.00 | 33 | 1011.5 |
| 20260905043029 | 58 | 208 | 0.0 | 4.0 | 0.00 | 0.00 | 0.00 | 35 | 1011.4 |
| 20260905041525 | 58 | 205 | 0.0 | 3.0 | 0.00 | 0.00 | 0.00 | 37 | 1011.4 |
| 20260905040020 | 59 | 201 | 1.0 | 4.0 | 0.00 | 0.00 | 0.00 | 36 | 1011.3 |
| 20260905034517 | 59 | 191 | 1.0 | 3.0 | 0.00 | 0.00 | 0.00 | 36 | 1011.2 |
| 20260905033102 | 59 | 214 | 1.0 | 3.0 | 0.00 | 0.00 | 0.00 | 36 | 1011.0 |
| 20260905031601 | 59 | 194 | 1.0 | 4.0 | 0.00 | 0.00 | 0.00 | 37 | 1010.8 |
| 20260905030035 | 59 | 203 | 0.0 | 3.0 | 0.00 | 0.00 | 0.00 | 38 | 1010.8 |
| 20260905024538 | 60 | 192 | 0.0 | 2.0 | 0.00 | 0.00 | 0.00 | 35 | 1010.7 |
| 20260905023030 | 60 | 228 | 0.0 | 3.0 | 0.00 | 0.00 | 0.00 | 33 | 1010.6 |
| 20260905021521 | 60 | 208 | 1.0 | 2.0 | 0.00 | 0.00 | 0.00 | 35 | 1010.6 |
| 20260905020016 | 60 | 197 | 0.0 | 1.0 | 0.00 | 0.00 | 0.00 | 39 | 1010.4 |
| 20260905014512 | 61 | 198 | 0.0 | 2.0 | 0.00 | 0.00 | 0.00 | 47 | 1010.5 |
| 20260905013010 | 61 | 199 | 1.0 | 3.0 | 0.00 | 0.00 | 0.00 | 42 | 1010.3 |
| 20260905011512 | 62 | 176 | 0.0 | 2.0 | 0.00 | 0.00 | 0.00 | 51 | 1010.3 |
| 20260905010052 | 63 | 194 | 1.0 | 3.0 | 0.00 | 0.00 | 0.00 | 57 | 1010.3 |
| 20260905004540 | 64 | 192 | 1.0 | 4.0 | 0.00 | 0.00 | 0.00 | 55 | 1010.3 |
| 20260905003027 | 64 | 192 | 1.0 | 5.0 | 0.00 | 0.00 | 0.00 | 56 | 1010.4 |
| 20260905001512 | 64 | 236 | 1.0 | 4.0 | 0.00 | 0.00 | 0.00 | 58 | 1010.4 |
| 20260905000109 | 64 | 148 | 3.0 | 7.0 | 0.00 | 0.00 | 0.00 | 61 | 1010.6 |
| 20260904234546 | 64 | 174 | 2.0 | 7.0 | 0.00 | 0.00 | 0.00 | 61 | 1010.5 |
| 20260904233043 | 65 | 200 | 2.0 | 7.0 | 0.00 | 0.00 | 0.00 | 60 | 1010.6 |
| 20260904231522 | 65 | 207 | 2.0 | 7.0 | 0.00 | 0.00 | 0.00 | 59 | 1010.6 |
| 20260904230041 | 66 | 203 | 2.0 | 8.0 | 0.00 | 0.00 | 0.00 | 56 | 1010.8 |
| 20260904224554 | 66 | 187 | 3.0 | 7.0 | 0.00 | 0.00 | 0.00 | 53 | 1010.8 |
| 20260904223058 | 66 | 179 | 2.0 | 9.0 | 0.00 | 0.00 | 0.00 | 51 | 1011.0 |
| 20260904221528 | 67 | 186 | 3.0 | 7.0 | 0.00 | 0.00 | 0.00 | 45 | 1011.1 |
| 20260904220023 | 68 | 146 | 3.0 | 7.0 | 0.00 | 0.00 | 0.00 | 42 | 1011.2 |
| 20260904214502 | 69 | 195 | 3.0 | 8.0 | 0.00 | 0.00 | 0.00 | 42 | 1011.3 |
| 20260904213058 | 69 | 190 | 3.0 | 9.0 | 0.00 | 0.00 | 0.00 | 40 | 1011.5 |
| 20260904211542 | 70 | 139 | 1.0 | 8.0 | 0.00 | 0.00 | 0.00 | 39 | 1011.3 |
| 20260904210032 | 70 | 179 | 4.0 | 6.0 | 0.00 | 0.00 | 0.00 | 39 | 1011.4 |
| 20260904204509 | 70 | 238 | 3.0 | 7.0 | 0.00 | 0.00 | 0.00 | 39 | 1011.5 |
| 20260904203005 | 70 | 255 | 3.0 | 8.0 | 0.00 | 0.00 | 0.00 | 37 | 1011.5 |
| 20260904201551 | 69 | 211 | 1.0 | 8.0 | 0.00 | 0.00 | 0.00 | 38 | 1011.4 |
| 20260904200052 | 69 | 217 | 2.0 | 5.0 | 0.00 | 0.00 | 0.00 | 37 | 1011.5 |
| 20260904194518 | 69 | 222 | 2.0 | 6.0 | 0.00 | 0.00 | 0.00 | 37 | 1011.5 |
| 20260904193019 | 69 | 145 | 2.0 | 7.0 | 0.00 | 0.00 | 0.00 | 39 | 1011.7 |
| 20260904191552 | 68 | 167 | 2.0 | 5.0 | 0.00 | 0.00 | 0.00 | 37 | 1011.9 |
| 20260904190048 | 68 | 179 | 3.0 | 6.0 | 0.00 | 0.00 | 0.00 | 37 | 1012.0 |
| 20260904184538 | 68 | 162 | 2.0 | 4.0 | 0.00 | 0.00 | 0.00 | 35 | 1012.1 |
| 20260904183021 | 67 | 208 | 1.0 | 4.0 | 0.00 | 0.00 | 0.00 | 35 | 1012.2 |
| 20260904181601 | 66 | 167 | 1.0 | 4.0 | 0.00 | 0.00 | 0.00 | 36 | 1012.1 |
| 20260904180054 | 65 | 174 | 1.0 | 4.0 | 0.00 | 0.00 | 0.00 | 38 | 1012.0 |
| 20260904174607 | 65 | 165 | 2.0 | 4.0 | 0.00 | 0.00 | 0.00 | 35 | 1012.0 |
| 20260904173030 | 64 | 176 | 2.0 | 5.0 | 0.00 | 0.00 | 0.00 | 33 | 1012.0 |
| 20260904171505 | 64 | 177 | 1.0 | 3.0 | 0.00 | 0.00 | 0.00 | 29 | 1011.9 |
| 20260904170001 | 63 | 197 | 1.0 | 4.0 | 0.00 | 0.00 | 0.00 | 28 | 1011.8 |
| 20260904164539 | 64 | 207 | 1.0 | 4.0 | 0.00 | 0.00 | 0.00 | 30 | 1011.6 |
| 20260904163048 | 63 | 284 | 0.0 | 2.0 | 0.00 | 0.00 | 0.00 | 33 | 1011.4 |
| 20260904161518 | 63 | 167 | 0.0 | 4.0 | 0.00 | 0.00 | 0.00 | 34 | 1011.3 |
| 20260904160008 | 62 | 200 | 0.0 | 3.0 | 0.00 | 0.00 | 0.00 | 37 | 1011.0 |